TimeCST,TemperatureF,Dew PointF,Humidity,Sea Level PressureIn,VisibilityMPH,Wind Direction,Wind SpeedMPH,Gust SpeedMPH,PrecipitationIn,Events,Conditions,WindDirDegrees,DateUTC
12:53 AM,35.1,30.0,82,29.92,10.0,Calm,Calm,-,N/A,,Clear,0,2013-02-27 06:53:00
1:53 AM,34.0,28.9,82,29.92,10.0,NNE,3.5,-,N/A,,Clear,20,2013-02-27 07:53:00
2:53 AM,33.1,28.9,85,29.91,10.0,Calm,Calm,-,N/A,,Clear,0,2013-02-27 08:53:00
3:53 AM,39.0,30.0,70,29.93,10.0,North,3.5,-,N/A,,Clear,360,2013-02-27 09:53:00
4:53 AM,34.0,28.9,82,29.92,10.0,NNE,8.1,-,N/A,,Clear,30,2013-02-27 10:53:00
5:53 AM,37.0,28.9,73,29.99,10.0,North,9.2,-,N/A,,Clear,10,2013-02-27 11:53:00
6:53 AM,37.0,30.0,76,30.01,8.0,North,9.2,-,N/A,,Clear,10,2013-02-27 12:53:00
7:53 AM,39.0,30.0,70,30.06,6.0,North,9.2,19.6,N/A,,Haze,360,2013-02-27 13:53:00
9:53 AM,48.0,28.0,46,30.09,9.0,North,10.4,-,N/A,,Clear,350,2013-02-27 15:53:00
10:53 AM,51.1,30.0,44,30.11,10.0,NNW,13.8,21.9,N/A,,Clear,340,2013-02-27 16:53:00
11:53 AM,54.0,27.0,35,30.12,10.0,WNW,16.1,21.9,N/A,,Clear,300,2013-02-27 17:53:00
12:53 PM,55.0,26.1,33,30.12,10.0,NW,18.4,25.3,N/A,,Clear,310,2013-02-27 18:53:00
1:53 PM,55.9,19.0,24,30.11,10.0,NNW,15.0,24.2,N/A,,Clear,330,2013-02-27 19:53:00
2:53 PM,57.0,23.0,27,30.11,10.0,NNW,12.7,-,N/A,,Clear,330,2013-02-27 20:53:00
3:53 PM,55.9,26.1,32,30.11,10.0,NNW,12.7,24.2,N/A,,Clear,330,2013-02-27 21:53:00
4:53 PM,55.9,21.9,27,30.11,10.0,NW,18.4,24.2,N/A,,Clear,320,2013-02-27 22:53:00
5:53 PM,54.0,21.0,28,30.12,10.0,WNW,8.1,-,N/A,,Clear,300,2013-02-27 23:53:00
6:53 PM,48.9,19.9,32,30.14,10.0,NW,10.4,-,N/A,,Clear,320,2013-02-28 00:53:00
8:53 PM,46.9,21.0,36,30.18,10.0,NNW,10.4,-,N/A,,Clear,330,2013-02-28 02:53:00
9:53 PM,44.1,21.9,42,30.20,10.0,NNW,8.1,-,N/A,,Clear,330,2013-02-28 03:53:00
10:53 PM,42.1,24.1,49,30.22,10.0,NW,10.4,19.6,N/A,,Clear,320,2013-02-28 04:53:00
11:53 PM,41.0,25.0,53,30.22,10.0,NNW,12.7,19.6,N/A,,Clear,330,2013-02-28 05:53:00